Hourly Data Report for October 06, 2017

All times are specified in Local Standard Time (LST). Add 1 hour to adjust for Daylight Saving Time where and when it is observed.

ALERT CLIMATE
NUNAVUT

82°30'00.000" N
62°20'00.000" W
65.40 m
2400305
71355
ZLT

Download Data

Hourly Data (October 2017)
Hourly Data Report for October 6, 2017
Temp Definition
°C
Dew Point Temp Definition
°C
Rel Hum Definition
%
Wind Dir Definition
10's deg

Wind Spd Definition
km/h
Visibility Definition
km
Stn Press Definition
kPa
Hmdx Definition


Wind Chill Definition


Weather Definition


TIME
00:00 -8.0 -9.5 89 29 10   101.03   -13 LegendNANA
01:00 -8.3 -10.2 86 28 14   101.02   -14 LegendNANA
02:00 -9.4 -11.2 86 28 11   101.00   -15 LegendNANA
03:00 -9.4 -11.3 86 29 14   100.98   -16 LegendNANA
04:00 -8.8 -10.9 85 28 16   100.96   -16 LegendNANA
05:00 -9.3 -11.2 86 29 16   100.94   -16 LegendNANA
06:00 -8.8 -10.9 85 29 13   100.93   -15 LegendNANA
07:00 -8.8 -10.3 88 29 15   100.90   -15 LegendNANA
08:00 -9.3 -10.9 88 29 18   100.88   -17 LegendNANA
09:00 -8.7 -10.2 88 29 8   100.85   -13 LegendNANA
10:00 -9.1 -10.5 90 26 9   100.81   -14 LegendNANA
11:00 -9.4 -9.9 96 34 5   100.79   -12 LegendNANA
12:00 -9.3 -9.9 95 33 9   100.75   -14 LegendNANA
13:00 -9.2 -10.0 94 1 9   100.72   -14 LegendNANA
14:00 -9.2 -9.9 94 1 7   100.70   -13 LegendNANA
15:00 -9.1 -9.8 94 4 7   100.68   -13 LegendNANA
16:00 -9.5 -10.3 94 10 7   100.67   -13 LegendNANA
17:00 -9.4 -10.2 94 9 4   100.66   -12 LegendNANA
18:00 -9.8 -10.6 94 10 3   100.63   -12 LegendNANA
19:00 -9.9 -10.7 94 11 2   100.65   -11 LegendNANA
20:00 -9.5 -10.2 94   0   100.63     LegendNANA
21:00 -9.3 -10.0 94 34 7   100.62   -13 LegendNANA
22:00 -8.6 -9.3 95 34 8   100.61   -13 LegendNANA
23:00 -8.2 -8.9 95 2 4   100.60   -10 LegendNANA

Notes on Data Quality.

Legend

  • E = Estimated
  • M = Missing
  • NA = Not Available
  • ‡ = Partner data that is not subject to review by the National Climate Archives
Date modified: